Time,TemperatureF,DewpointF,PressureIn,WindDirection,WindDirectionDegrees,WindSpeedMPH,WindSpeedGustMPH,Humidity,HourlyPrecipIn,Conditions,Clouds,dailyrainin,SoftwareType,DateUTC
2013-09-18 00:13:00,63.0,61.0,30.00,SSW,192,4.0,-999.0,92,-99.99,,,-99.99,,2013-09-18 05:13:00,
2013-09-18 00:23:00,63.0,61.0,30.00,SSE,151,3.0,-999.0,92,-99.99,,,-99.99,,2013-09-18 05:23:00,
2013-09-18 00:43:00,63.0,61.0,30.00,South,184,3.0,-999.0,92,-99.99,,,-99.99,,2013-09-18 05:43:00,
2013-09-18 00:53:00,63.0,61.0,30.00,WSW,244,4.0,-999.0,93,-99.99,,,-99.99,,2013-09-18 05:53:00,
2013-09-18 01:12:00,63.0,61.0,30.00,ENE,65,3.0,-999.0,93,-99.99,,,-99.99,,2013-09-18 06:12:00,
2013-09-18 01:22:00,63.0,61.0,29.99,West,269,3.0,-999.0,94,-99.99,,,-99.99,,2013-09-18 06:22:00,
2013-09-18 01:42:00,63.0,61.0,29.98,South,186,3.0,-999.0,94,-99.99,,,-99.99,,2013-09-18 06:42:00,
2013-09-18 01:52:00,63.0,61.0,29.98,WSW,247,3.0,-999.0,94,-99.99,,,-99.99,,2013-09-18 06:52:00,
2013-09-18 02:12:00,63.0,61.0,29.98,NE,46,4.0,-999.0,94,-99.99,,,-99.99,,2013-09-18 07:12:00,
2013-09-18 02:22:00,63.0,61.0,29.98,ESE,103,3.0,-999.0,94,-99.99,,,-99.99,,2013-09-18 07:22:00,
2013-09-18 02:52:00,63.0,62.0,29.97,SE,140,3.0,-999.0,95,-99.99,,,-99.99,,2013-09-18 07:52:00,
2013-09-18 03:12:00,63.0,62.0,29.96,South,178,3.0,-999.0,95,-99.99,,,-99.99,,2013-09-18 08:12:00,
2013-09-18 03:22:00,63.0,62.0,29.96,ESE,121,2.0,-999.0,95,-99.99,,,-99.99,,2013-09-18 08:22:00,
2013-09-18 03:52:00,63.0,62.0,29.94,South,169,3.0,-999.0,96,-99.99,,,-99.99,,2013-09-18 08:52:00,
2013-09-18 04:12:00,63.0,62.0,29.93,SE,128,3.0,-999.0,96,-99.99,,,-99.99,,2013-09-18 09:12:00,
2013-09-18 04:22:00,63.0,62.0,29.93,ESE,123,3.0,-999.0,95,-99.99,,,-99.99,,2013-09-18 09:22:00,
2013-09-18 04:43:00,63.0,62.0,29.93,East,96,2.0,-999.0,95,-99.99,,,-99.99,,2013-09-18 09:43:00,
2013-09-18 04:53:00,63.0,62.0,29.92,East,80,3.0,-999.0,95,-99.99,,,-99.99,,2013-09-18 09:53:00,
2013-09-18 05:13:00,63.0,62.0,29.91,SE,127,3.0,-999.0,95,-99.99,,,-99.99,,2013-09-18 10:13:00,
2013-09-18 05:23:00,63.0,62.0,29.91,SE,127,3.0,-999.0,95,-99.99,,,-99.99,,2013-09-18 10:23:00,
2013-09-18 05:53:00,63.0,62.0,29.91,SE,126,3.0,-999.0,95,-99.99,,,-99.99,,2013-09-18 10:53:00,
2013-09-18 06:12:00,64.0,63.0,29.91,ESE,115,3.0,-999.0,95,-99.99,,,-99.99,,2013-09-18 11:12:00,
2013-09-18 06:22:00,64.0,63.0,29.92,SE,134,2.0,-999.0,95,-99.99,,,-99.99,,2013-09-18 11:22:00,
2013-09-18 06:52:00,64.0,63.0,29.92,South,176,1.0,-999.0,95,-99.99,,,-99.99,,2013-09-18 11:52:00,
2013-09-18 07:12:00,64.0,63.0,29.92,SSW,200,2.0,-999.0,95,-99.99,,,-99.99,,2013-09-18 12:12:00,
2013-09-18 07:22:00,64.0,63.0,29.92,SW,225,3.0,-999.0,95,-99.99,,,-99.99,,2013-09-18 12:22:00,
2013-09-18 07:42:00,64.0,63.0,29.91,SSW,192,2.0,-999.0,95,-99.99,,,-99.99,,2013-09-18 12:42:00,
2013-09-18 07:52:00,64.0,63.0,29.91,ESE,122,3.0,-999.0,95,-99.99,,,-99.99,,2013-09-18 12:52:00,
2013-09-18 08:11:00,64.0,63.0,29.89,ESE,119,3.0,-999.0,95,-99.99,,,-99.99,,2013-09-18 13:11:00,
2013-09-18 23:01:00,74.0,68.0,29.77,SE,131,3.0,-999.0,83,-99.99,,,-99.99,,2013-09-19 04:01:00,
2013-09-18 23:25:00,74.0,68.0,29.77,SE,136,2.0,-999.0,83,-99.99,,,-99.99,,2013-09-19 04:25:00,
2013-09-18 23:54:00,74.0,68.0,29.76,SE,135,4.0,-999.0,82,-99.99,,,-99.99,,2013-09-19 04:54:00,